Year,Month,Day,Hour,Minute,Value (Times are PST for insolation in W/m^2)
2008,11,03,00,00,0.00
2008,11,03,00,01,0.00
2008,11,03,00,02,0.00
2008,11,03,00,03,0.00
2008,11,03,00,04,0.00
2008,11,03,00,05,0.00
2008,11,03,00,06,0.00
2008,11,03,00,07,0.00
2008,11,03,00,08,0.00
2008,11,03,00,09,0.00
2008,11,03,00,10,0.00
2008,11,03,00,11,0.00
2008,11,03,00,12,0.00
2008,11,03,00,13,0.00
2008,11,03,00,14,0.00
2008,11,03,00,15,0.00
2008,11,03,00,16,0.00
2008,11,03,00,17,0.00
2008,11,03,00,18,0.00
2008,11,03,00,19,0.00
2008,11,03,00,20,0.00
2008,11,03,00,21,0.00
2008,11,03,00,22,0.00
2008,11,03,00,23,0.00
2008,11,03,00,24,0.00
2008,11,03,00,25,0.00
2008,11,03,00,26,0.00
2008,11,03,00,27,0.00
2008,11,03,00,28,0.00
2008,11,03,00,29,0.00
2008,11,03,00,30,0.00
2008,11,03,00,31,0.00
2008,11,03,00,32,0.00
2008,11,03,00,33,0.00
2008,11,03,00,34,0.00
2008,11,03,00,35,0.00
2008,11,03,00,36,0.00
2008,11,03,00,37,0.00
2008,11,03,00,38,0.00
2008,11,03,00,39,0.00
2008,11,03,00,40,0.00
2008,11,03,00,41,0.00
2008,11,03,00,42,0.00
2008,11,03,00,43,0.00
2008,11,03,00,44,0.00
2008,11,03,00,45,0.00
2008,11,03,00,46,0.00
2008,11,03,00,47,0.00
2008,11,03,00,48,0.00
2008,11,03,00,49,0.00
2008,11,03,00,50,0.00
2008,11,03,00,51,0.00
2008,11,03,00,52,0.00
2008,11,03,00,53,0.00
2008,11,03,00,54,0.00
2008,11,03,00,55,0.00
2008,11,03,00,56,0.00
2008,11,03,00,57,0.00
2008,11,03,00,58,0.00
2008,11,03,00,59,0.00
2008,11,03,01,00,0.00
2008,11,03,01,01,0.00
2008,11,03,01,02,0.00
2008,11,03,01,03,0.00
2008,11,03,01,04,0.00
2008,11,03,01,05,0.00
2008,11,03,01,06,0.00
2008,11,03,01,07,0.00
2008,11,03,01,08,0.00
2008,11,03,01,09,0.00
2008,11,03,01,10,0.00
2008,11,03,01,11,0.00
2008,11,03,01,12,0.00
2008,11,03,01,13,0.00
2008,11,03,01,14,0.00
2008,11,03,01,15,0.00
2008,11,03,01,16,0.00
2008,11,03,01,17,0.00
2008,11,03,01,18,0.00
2008,11,03,01,19,0.00
2008,11,03,01,20,0.00
2008,11,03,01,21,0.00
2008,11,03,01,22,0.00
2008,11,03,01,23,0.00
2008,11,03,01,24,0.00
2008,11,03,01,25,0.00
2008,11,03,01,26,0.00
2008,11,03,01,27,0.00
2008,11,03,01,28,0.00
2008,11,03,01,29,0.00
2008,11,03,01,30,0.00
2008,11,03,01,31,0.00
2008,11,03,01,32,0.00
2008,11,03,01,33,0.00
2008,11,03,01,34,0.00
2008,11,03,01,35,0.00
2008,11,03,01,36,0.00
2008,11,03,01,37,0.00
2008,11,03,01,38,0.00
2008,11,03,01,39,0.00
2008,11,03,01,40,0.00
2008,11,03,01,41,0.00
2008,11,03,01,42,0.00
2008,11,03,01,43,0.00
2008,11,03,01,44,0.00
2008,11,03,01,45,0.00
2008,11,03,01,46,0.00
2008,11,03,01,47,0.00
2008,11,03,01,48,0.00
2008,11,03,01,49,0.00
2008,11,03,01,50,0.00
2008,11,03,01,51,0.00
2008,11,03,01,52,0.00
2008,11,03,01,53,0.00
2008,11,03,01,54,0.00
2008,11,03,01,55,0.00
2008,11,03,01,56,0.00
2008,11,03,01,57,0.00
2008,11,03,01,58,0.00
2008,11,03,01,59,0.00
2008,11,03,02,00,0.00
2008,11,03,02,01,0.00
2008,11,03,02,02,0.00
2008,11,03,02,03,0.00
2008,11,03,02,04,0.00
2008,11,03,02,05,0.00
2008,11,03,02,06,0.00
2008,11,03,02,07,0.00
2008,11,03,02,08,0.00
2008,11,03,02,09,0.00
2008,11,03,02,10,0.00
2008,11,03,02,11,0.00
2008,11,03,02,12,0.00
2008,11,03,02,13,0.00
2008,11,03,02,14,0.00
2008,11,03,02,15,0.00
2008,11,03,02,16,0.00
2008,11,03,02,17,0.00
2008,11,03,02,18,0.00
2008,11,03,02,19,0.00
2008,11,03,02,20,0.00
2008,11,03,02,21,0.00
2008,11,03,02,22,0.00
2008,11,03,02,23,0.00
2008,11,03,02,24,0.00
2008,11,03,02,25,0.00
2008,11,03,02,26,0.00
2008,11,03,02,27,0.00
2008,11,03,02,28,0.00
2008,11,03,02,29,0.00
2008,11,03,02,30,0.00
2008,11,03,02,31,0.00
2008,11,03,02,32,0.00
2008,11,03,02,33,0.00
2008,11,03,02,34,0.00
2008,11,03,02,35,0.00
2008,11,03,02,36,0.00
2008,11,03,02,37,0.00
2008,11,03,02,38,0.00
2008,11,03,02,39,0.00
2008,11,03,02,40,0.00
2008,11,03,02,41,0.00
2008,11,03,02,42,0.00
2008,11,03,02,43,0.00
2008,11,03,02,44,0.00
2008,11,03,02,45,0.00
2008,11,03,02,46,0.00
2008,11,03,02,47,0.00
2008,11,03,02,48,0.00
2008,11,03,02,49,0.00
2008,11,03,02,50,0.00
2008,11,03,02,51,0.00
2008,11,03,02,52,0.00
2008,11,03,02,53,0.00
2008,11,03,02,54,0.00
2008,11,03,02,55,0.00
2008,11,03,02,56,0.00
2008,11,03,02,57,0.00
2008,11,03,02,58,0.00
2008,11,03,02,59,0.00
2008,11,03,03,00,0.00
2008,11,03,03,01,0.00
2008,11,03,03,02,0.00
2008,11,03,03,03,0.00
2008,11,03,03,04,0.00
2008,11,03,03,05,0.00
2008,11,03,03,06,0.00
2008,11,03,03,07,0.00
2008,11,03,03,08,0.00
2008,11,03,03,09,0.00
2008,11,03,03,10,0.00
2008,11,03,03,11,0.00
2008,11,03,03,12,0.00
2008,11,03,03,13,0.00
2008,11,03,03,14,0.00
2008,11,03,03,15,0.00
2008,11,03,03,16,0.00
2008,11,03,03,17,0.00
2008,11,03,03,18,0.00
2008,11,03,03,19,0.00
2008,11,03,03,20,0.00
2008,11,03,03,21,0.00
2008,11,03,03,22,0.00
2008,11,03,03,23,0.00
2008,11,03,03,24,0.00
2008,11,03,03,25,0.00
2008,11,03,03,26,0.00
2008,11,03,03,27,0.00
2008,11,03,03,28,0.00
2008,11,03,03,29,0.00
2008,11,03,03,30,0.00
2008,11,03,03,31,0.00
2008,11,03,03,32,0.00
2008,11,03,03,33,0.00
2008,11,03,03,34,0.00
2008,11,03,03,35,0.00
2008,11,03,03,36,0.00
2008,11,03,03,37,0.00
2008,11,03,03,38,0.00
2008,11,03,03,39,0.00
2008,11,03,03,40,0.00
2008,11,03,03,41,0.00
2008,11,03,03,42,0.00
2008,11,03,03,43,0.00
2008,11,03,03,44,0.00
2008,11,03,03,45,0.00
2008,11,03,03,46,0.00
2008,11,03,03,47,0.00
2008,11,03,03,48,0.00
2008,11,03,03,49,0.00
2008,11,03,03,50,0.00
2008,11,03,03,51,0.00
2008,11,03,03,52,0.00
2008,11,03,03,53,0.00
2008,11,03,03,54,0.00
2008,11,03,03,55,0.00
2008,11,03,03,56,0.00
2008,11,03,03,57,0.00
2008,11,03,03,58,0.00
2008,11,03,03,59,0.00
2008,11,03,04,00,0.00
2008,11,03,04,01,0.00
2008,11,03,04,02,0.00
2008,11,03,04,03,0.00
2008,11,03,04,05,0.00
2008,11,03,04,06,0.00
2008,11,03,04,07,0.00
2008,11,03,04,08,0.00
2008,11,03,04,09,0.00
2008,11,03,04,10,0.00
2008,11,03,04,11,0.00
2008,11,03,04,12,0.00
2008,11,03,04,13,0.00
2008,11,03,04,14,0.00
2008,11,03,04,15,0.00
2008,11,03,04,16,0.00
2008,11,03,04,17,0.00
2008,11,03,04,18,0.00
2008,11,03,04,19,0.00
2008,11,03,04,20,0.00
2008,11,03,04,21,0.00
2008,11,03,04,22,0.00
2008,11,03,04,23,0.00
2008,11,03,04,24,0.00
2008,11,03,04,25,0.00
2008,11,03,04,26,0.00
2008,11,03,04,27,0.00
2008,11,03,04,28,0.00
2008,11,03,04,29,0.00
2008,11,03,04,30,0.00
2008,11,03,04,31,0.00
2008,11,03,04,32,0.00
2008,11,03,04,33,0.00
2008,11,03,04,34,0.00
2008,11,03,04,35,0.00
2008,11,03,04,36,0.00
2008,11,03,04,37,0.00
2008,11,03,04,38,0.00
2008,11,03,04,39,0.00
2008,11,03,04,40,0.00
2008,11,03,04,41,0.00
2008,11,03,04,42,0.00
2008,11,03,04,43,0.00
2008,11,03,04,44,0.00
2008,11,03,04,45,0.00
2008,11,03,04,46,0.00
2008,11,03,04,47,0.00
2008,11,03,04,48,0.00
2008,11,03,04,49,0.00
2008,11,03,04,50,0.00
2008,11,03,04,51,0.00
2008,11,03,04,52,0.00
2008,11,03,04,53,0.00
2008,11,03,04,54,0.00
2008,11,03,04,55,0.00
2008,11,03,04,56,0.00
2008,11,03,04,57,0.00
2008,11,03,04,58,0.00
2008,11,03,04,59,0.00
2008,11,03,05,00,0.00
2008,11,03,05,01,0.00
2008,11,03,05,02,0.00
2008,11,03,05,03,0.00
2008,11,03,05,04,0.00
2008,11,03,05,05,0.00
2008,11,03,05,06,0.00
2008,11,03,05,07,0.00
2008,11,03,05,08,0.00
2008,11,03,05,09,0.00
2008,11,03,05,10,0.00
2008,11,03,05,11,0.00
2008,11,03,05,12,0.00
2008,11,03,05,13,0.00
2008,11,03,05,14,0.00
2008,11,03,05,15,0.00
2008,11,03,05,16,0.00
2008,11,03,05,17,0.00
2008,11,03,05,18,0.00
2008,11,03,05,19,0.00
2008,11,03,05,20,0.00
2008,11,03,05,21,0.00
2008,11,03,05,22,0.00
2008,11,03,05,23,0.00
2008,11,03,05,24,0.00
2008,11,03,05,25,0.00
2008,11,03,05,26,0.00
2008,11,03,05,27,0.00
2008,11,03,05,28,0.00
2008,11,03,05,29,0.00
2008,11,03,05,30,0.00
2008,11,03,05,31,0.00
2008,11,03,05,32,0.00
2008,11,03,05,33,0.00
2008,11,03,05,34,0.00
2008,11,03,05,35,0.00
2008,11,03,05,36,0.00
2008,11,03,05,37,0.00
2008,11,03,05,38,0.00
2008,11,03,05,39,0.00
2008,11,03,05,40,0.00
2008,11,03,05,41,0.00
2008,11,03,05,42,0.00
2008,11,03,05,43,0.00
2008,11,03,05,44,0.00
2008,11,03,05,45,0.00
2008,11,03,05,46,0.00
2008,11,03,05,47,0.00
2008,11,03,05,48,0.00
2008,11,03,05,49,0.00
2008,11,03,05,50,0.00
2008,11,03,05,51,0.00
2008,11,03,05,52,0.00
2008,11,03,05,53,0.00
2008,11,03,05,54,0.00
2008,11,03,05,55,0.00
2008,11,03,05,56,0.00
2008,11,03,05,57,0.00
2008,11,03,05,58,0.00
2008,11,03,05,59,0.00
2008,11,03,06,00,0.00
2008,11,03,06,01,0.00
2008,11,03,06,02,0.00
2008,11,03,06,03,0.00
2008,11,03,06,04,0.00
2008,11,03,06,05,0.00
2008,11,03,06,06,0.00
2008,11,03,06,07,0.00
2008,11,03,06,08,0.00
2008,11,03,06,09,0.00
2008,11,03,06,10,0.00
2008,11,03,06,11,0.00
2008,11,03,06,12,0.00
2008,11,03,06,13,0.00
2008,11,03,06,14,0.00
2008,11,03,06,15,0.00
2008,11,03,06,16,0.00
2008,11,03,06,17,0.00
2008,11,03,06,18,0.00
2008,11,03,06,19,0.00
2008,11,03,06,20,0.00
2008,11,03,06,21,0.00
2008,11,03,06,22,0.00
2008,11,03,06,23,0.00
2008,11,03,06,24,0.00
2008,11,03,06,25,0.00
2008,11,03,06,26,0.00
2008,11,03,06,27,0.00
2008,11,03,06,28,0.00
2008,11,03,06,29,0.00
2008,11,03,06,30,0.00
2008,11,03,06,31,0.00
2008,11,03,06,32,0.00
2008,11,03,06,33,0.00
2008,11,03,06,34,0.00
2008,11,03,06,35,0.00
2008,11,03,06,36,0.00
2008,11,03,06,37,0.00
2008,11,03,06,38,0.00
2008,11,03,06,39,0.00
2008,11,03,06,40,0.00
2008,11,03,06,41,0.00
2008,11,03,06,42,0.00
2008,11,03,06,43,0.00
2008,11,03,06,44,0.00
2008,11,03,06,45,0.00
2008,11,03,06,46,0.00
2008,11,03,06,47,0.00
2008,11,03,06,48,0.00
2008,11,03,06,49,0.00
2008,11,03,06,50,0.00
2008,11,03,06,51,0.00
2008,11,03,06,52,0.00
2008,11,03,06,53,0.00
2008,11,03,06,54,0.00
2008,11,03,06,55,0.00
2008,11,03,06,56,0.00
2008,11,03,06,57,0.00
2008,11,03,06,58,0.00
2008,11,03,06,59,0.00
2008,11,03,07,00,0.00
2008,11,03,07,01,0.00
2008,11,03,07,02,0.00
2008,11,03,07,03,0.00
2008,11,03,07,04,0.00
2008,11,03,07,05,0.00
2008,11,03,07,06,0.00
2008,11,03,07,07,0.00
2008,11,03,07,08,0.00
2008,11,03,07,09,0.00
2008,11,03,07,10,0.00
2008,11,03,07,11,0.00
2008,11,03,07,12,0.00
2008,11,03,07,13,0.00
2008,11,03,07,14,0.00
2008,11,03,07,15,0.00
2008,11,03,07,16,1.60
2008,11,03,07,17,5.00
2008,11,03,07,18,5.00
2008,11,03,07,19,5.00
2008,11,03,07,20,5.00
2008,11,03,07,21,6.10
2008,11,03,07,22,7.00
2008,11,03,07,23,7.00
2008,11,03,07,24,8.40
2008,11,03,07,25,9.00
2008,11,03,07,26,9.00
2008,11,03,07,27,10.70
2008,11,03,07,28,11.00
2008,11,03,07,29,11.90
2008,11,03,07,30,12.00
2008,11,03,07,31,14.00
2008,11,03,07,32,14.10
2008,11,03,07,33,16.00
2008,11,03,07,34,16.20
2008,11,03,07,35,18.00
2008,11,03,07,36,18.20
2008,11,03,07,37,19.00
2008,11,03,07,38,19.60
2008,11,03,07,39,21.70
2008,11,03,07,40,23.00
2008,11,03,07,41,23.90
2008,11,03,07,42,25.00
2008,11,03,07,43,25.50
2008,11,03,07,44,26.00
2008,11,03,07,45,27.20
2008,11,03,07,46,29.40
2008,11,03,07,47,31.50
2008,11,03,07,48,32.80
2008,11,03,07,49,34.60
2008,11,03,07,50,36.70
2008,11,03,07,51,38.80
2008,11,03,07,52,39.90
2008,11,03,07,53,44.00
2008,11,03,07,54,46.00
2008,11,03,07,55,47.20
2008,11,03,07,56,51.20
2008,11,03,07,57,53.10
2008,11,03,07,58,54.30
2008,11,03,07,59,56.30
2008,11,03,08,00,58.50
2008,11,03,08,01,60.60
2008,11,03,08,02,62.00
2008,11,03,08,03,62.40
2008,11,03,08,04,63.90
2008,11,03,08,05,65.00
2008,11,03,08,06,65.00
2008,11,03,08,07,66.10
2008,11,03,08,08,67.00
2008,11,03,08,09,67.00
2008,11,03,08,10,68.40
2008,11,03,08,11,69.00
2008,11,03,08,12,69.80
2008,11,03,08,13,71.70
2008,11,03,08,14,73.80
2008,11,03,08,15,76.80
2008,11,03,08,16,79.00
2008,11,03,08,17,81.00
2008,11,03,08,18,83.00
2008,11,03,08,19,84.10
2008,11,03,08,20,86.20
2008,11,03,08,21,88.30
2008,11,03,08,22,90.20
2008,11,03,08,23,91.60
2008,11,03,08,24,93.60
2008,11,03,08,25,95.70
2008,11,03,08,26,97.40
2008,11,03,08,27,98.90
2008,11,03,08,28,101.00
2008,11,03,08,29,103.00
2008,11,03,08,30,104.60
2008,11,03,08,31,105.00
2008,11,03,08,32,106.30
2008,11,03,08,33,108.40
2008,11,03,08,34,109.00
2008,11,03,08,35,110.60
2008,11,03,08,36,111.00
2008,11,03,08,37,112.80
2008,11,03,08,38,113.00
2008,11,03,08,39,113.00
2008,11,03,08,40,111.00
2008,11,03,08,41,110.80
2008,11,03,08,42,107.10
2008,11,03,08,43,109.60
2008,11,03,08,44,113.80
2008,11,03,08,45,120.00
2008,11,03,08,46,127.80
2008,11,03,08,47,135.10
2008,11,03,08,48,142.30
2008,11,03,08,49,129.20
2008,11,03,08,50,123.10
2008,11,03,08,51,139.00
2008,11,03,08,52,141.00
2008,11,03,08,53,152.60
2008,11,03,08,54,174.50
2008,11,03,08,55,167.30
2008,11,03,08,56,150.40
2008,11,03,08,57,132.30
2008,11,03,08,58,137.90
2008,11,03,08,59,141.80
2008,11,03,09,00,159.80
2008,11,03,09,01,170.50
2008,11,03,09,02,172.00
2008,11,03,09,03,185.00
2008,11,03,09,04,162.50
2008,11,03,09,05,152.70
2008,11,03,09,06,152.90
2008,11,03,09,07,187.80
2008,11,03,09,08,226.00
2008,11,03,09,09,198.10
2008,11,03,09,10,198.30
2008,11,03,09,11,231.30
2008,11,03,09,12,235.80
2008,11,03,09,13,235.00
2008,11,03,09,14,245.70
2008,11,03,09,15,236.00
2008,11,03,09,16,239.80
2008,11,03,09,17,263.10
2008,11,03,09,18,287.30
2008,11,03,09,19,273.10
2008,11,03,09,20,231.00
2008,11,03,09,21,239.00
2008,11,03,09,22,278.20
2008,11,03,09,23,312.60
2008,11,03,09,24,311.30
2008,11,03,09,25,287.00
2008,11,03,09,26,257.00
2008,11,03,09,27,264.60
2008,11,03,09,28,296.70
2008,11,03,09,29,289.60
2008,11,03,09,30,273.20
2008,11,03,09,31,281.80
2008,11,03,09,32,226.80
2008,11,03,09,33,188.10
2008,11,03,09,34,183.00
2008,11,03,09,35,185.70
2008,11,03,09,36,185.60
2008,11,03,09,37,179.00
2008,11,03,09,38,173.30
2008,11,03,09,39,164.80
2008,11,03,09,40,162.40
2008,11,03,09,41,162.00
2008,11,03,09,42,162.70
2008,11,03,09,43,163.00
2008,11,03,09,44,163.00
2008,11,03,09,45,162.20
2008,11,03,09,46,164.70
2008,11,03,09,47,168.80
2008,11,03,09,48,179.00
2008,11,03,09,49,195.00
2008,11,03,09,50,221.00
2008,11,03,09,51,281.30
2008,11,03,09,52,342.70
2008,11,03,09,53,357.80
2008,11,03,09,54,351.20
2008,11,03,09,55,347.20
2008,11,03,09,56,336.50
2008,11,03,09,57,317.30
2008,11,03,09,58,315.60
2008,11,03,09,59,297.70
2008,11,03,10,00,260.80
2008,11,03,10,01,251.80
2008,11,03,10,02,256.40
2008,11,03,10,03,264.80
2008,11,03,10,04,302.00
2008,11,03,10,05,298.30
2008,11,03,10,06,257.30
2008,11,03,10,07,227.40
2008,11,03,10,08,236.50
2008,11,03,10,09,230.30
2008,11,03,10,10,259.00
2008,11,03,10,11,304.00
2008,11,03,10,12,290.00
2008,11,03,10,13,301.00
2008,11,03,10,14,317.00
2008,11,03,10,15,330.70
2008,11,03,10,16,311.60
2008,11,03,10,17,346.80
2008,11,03,10,18,320.80
2008,11,03,10,19,326.50
2008,11,03,10,20,313.70
2008,11,03,10,21,298.30
2008,11,03,10,22,278.00
2008,11,03,10,23,260.00
2008,11,03,10,24,272.00
2008,11,03,10,25,260.40
2008,11,03,10,26,252.60
2008,11,03,10,27,231.30
2008,11,03,10,28,199.20
2008,11,03,10,29,192.00
2008,11,03,10,30,182.80
2008,11,03,10,31,182.70
2008,11,03,10,32,189.30
2008,11,03,10,33,192.60
2008,11,03,10,34,202.40
2008,11,03,10,35,218.00
2008,11,03,10,36,234.40
2008,11,03,10,37,241.50
2008,11,03,10,38,252.40
2008,11,03,10,39,277.90
2008,11,03,10,40,301.20
2008,11,03,10,41,301.80
2008,11,03,10,42,282.00
2008,11,03,10,43,269.10
2008,11,03,10,44,252.20
2008,11,03,10,45,254.00
2008,11,03,10,46,234.60
2008,11,03,10,47,212.50
2008,11,03,10,48,200.50
2008,11,03,10,49,196.80
2008,11,03,10,50,193.80
2008,11,03,10,51,187.90
2008,11,03,10,52,180.40
2008,11,03,10,53,174.90
2008,11,03,10,54,168.80
2008,11,03,10,55,163.40
2008,11,03,10,56,163.00
2008,11,03,10,57,167.00
2008,11,03,10,58,165.10
2008,11,03,10,59,167.00
2008,11,03,11,00,170.80
2008,11,03,11,01,167.40
2008,11,03,11,02,169.60
2008,11,03,11,03,161.60
2008,11,03,11,04,161.90
2008,11,03,11,05,165.70
2008,11,03,11,06,162.00
2008,11,03,11,07,157.20
2008,11,03,11,08,161.20
2008,11,03,11,09,194.40
2008,11,03,11,10,230.40
2008,11,03,11,11,285.50
2008,11,03,11,12,372.50
2008,11,03,11,13,386.70
2008,11,03,11,14,378.00
2008,11,03,11,15,360.10
2008,11,03,11,16,311.40
2008,11,03,11,17,338.80
2008,11,03,11,18,337.80
2008,11,03,11,19,377.60
2008,11,03,11,20,417.00
2008,11,03,11,21,423.60
2008,11,03,11,22,427.00
2008,11,03,11,23,395.90
2008,11,03,11,24,394.80
2008,11,03,11,25,402.70
2008,11,03,11,26,412.30
2008,11,03,11,27,419.00
2008,11,03,11,28,423.30
2008,11,03,11,29,420.70
2008,11,03,11,30,421.20
2008,11,03,11,31,419.10
2008,11,03,11,32,419.80
2008,11,03,11,33,422.00
2008,11,03,11,34,419.50
2008,11,03,11,35,418.70
2008,11,03,11,36,420.00
2008,11,03,11,37,347.30
2008,11,03,11,38,370.90
2008,11,03,11,39,388.00
2008,11,03,11,40,302.20
2008,11,03,11,41,360.30
2008,11,03,11,42,378.00
2008,11,03,11,43,378.00
2008,11,03,11,44,411.30
2008,11,03,11,45,403.00
2008,11,03,11,46,409.20
2008,11,03,11,47,428.70
2008,11,03,11,48,427.00
2008,11,03,11,49,426.60
2008,11,03,11,50,425.00
2008,11,03,11,51,424.20
2008,11,03,11,52,421.30
2008,11,03,11,53,419.20
2008,11,03,11,54,417.60
2008,11,03,11,55,417.50
2008,11,03,11,56,418.00
2008,11,03,11,57,420.20
2008,11,03,11,58,426.30
2008,11,03,11,59,427.70
2008,11,03,12,00,425.60
2008,11,03,12,01,419.90
2008,11,03,12,02,396.20
2008,11,03,12,03,385.80
2008,11,03,12,04,413.00
2008,11,03,12,05,423.80
2008,11,03,12,06,422.10
2008,11,03,12,07,424.00
2008,11,03,12,08,422.00
2008,11,03,12,09,422.00
2008,11,03,12,10,419.10
2008,11,03,12,11,388.70
2008,11,03,12,12,366.70
2008,11,03,12,13,417.20
2008,11,03,12,14,415.00
2008,11,03,12,15,416.00
2008,11,03,12,16,418.80
2008,11,03,12,17,420.00
2008,11,03,12,18,422.00
2008,11,03,12,19,424.00
2008,11,03,12,20,423.00
2008,11,03,12,21,414.70
2008,11,03,12,22,405.30
2008,11,03,12,23,414.10
2008,11,03,12,24,415.80
2008,11,03,12,25,404.10
2008,11,03,12,26,399.30
2008,11,03,12,27,394.60
2008,11,03,12,28,386.40
2008,11,03,12,29,375.60
2008,11,03,12,30,373.00
2008,11,03,12,31,368.20
2008,11,03,12,32,391.60
2008,11,03,12,33,418.40
2008,11,03,12,34,420.80
2008,11,03,12,35,415.00
2008,11,03,12,36,408.60
2008,11,03,12,37,390.90
2008,11,03,12,38,388.60
2008,11,03,12,39,390.70
2008,11,03,12,40,393.60
2008,11,03,12,41,389.60
2008,11,03,12,42,392.20
2008,11,03,12,43,389.50
2008,11,03,12,44,340.60
2008,11,03,12,45,338.00
2008,11,03,12,46,370.10
2008,11,03,12,47,374.90
2008,11,03,12,48,393.40
2008,11,03,12,49,425.70
2008,11,03,12,50,425.60
2008,11,03,12,51,385.30
2008,11,03,12,52,359.00
2008,11,03,12,53,315.00
2008,11,03,12,54,298.70
2008,11,03,12,55,295.40
2008,11,03,12,56,331.10
2008,11,03,12,57,421.50
2008,11,03,12,58,429.00
2008,11,03,12,59,428.00
2008,11,03,13,00,422.70
2008,11,03,13,01,417.70
2008,11,03,13,02,413.50
2008,11,03,13,03,399.20
2008,11,03,13,04,384.60
2008,11,03,13,05,389.10
2008,11,03,13,06,393.20
2008,11,03,13,07,384.90
2008,11,03,13,08,389.00
2008,11,03,13,09,383.60
2008,11,03,13,10,385.80
2008,11,03,13,11,384.50
2008,11,03,13,12,388.20
2008,11,03,13,13,395.30
2008,11,03,13,14,390.30
2008,11,03,13,15,373.00
2008,11,03,13,16,364.00
2008,11,03,13,17,372.50
2008,11,03,13,18,383.10
2008,11,03,13,19,345.40
2008,11,03,13,20,313.20
2008,11,03,13,21,273.20
2008,11,03,13,22,300.20
2008,11,03,13,23,290.10
2008,11,03,13,24,220.30
2008,11,03,13,25,171.60
2008,11,03,13,26,185.30
2008,11,03,13,27,209.60
2008,11,03,13,28,231.20
2008,11,03,13,29,304.00
2008,11,03,13,30,323.10
2008,11,03,13,31,332.00
2008,11,03,13,32,352.80
2008,11,03,13,33,358.40
2008,11,03,13,34,359.00
2008,11,03,13,35,355.70
2008,11,03,13,36,359.40
2008,11,03,13,37,360.00
2008,11,03,13,38,353.20
2008,11,03,13,39,299.00
2008,11,03,13,40,352.10
2008,11,03,13,41,352.70
2008,11,03,13,42,347.20
2008,11,03,13,43,340.20
2008,11,03,13,44,336.00
2008,11,03,13,45,280.20
2008,11,03,13,46,141.70
2008,11,03,13,47,182.30
2008,11,03,13,48,240.30
2008,11,03,13,49,223.80
2008,11,03,13,50,164.40
2008,11,03,13,51,194.50
2008,11,03,13,52,283.60
2008,11,03,13,53,324.60
2008,11,03,13,54,332.40
2008,11,03,13,55,305.10
2008,11,03,13,56,263.30
2008,11,03,13,57,255.10
2008,11,03,13,58,301.20
2008,11,03,13,59,342.70
2008,11,03,14,00,337.50
2008,11,03,14,01,326.10
2008,11,03,14,02,320.00
2008,11,03,14,03,305.70
2008,11,03,14,04,300.50
2008,11,03,14,05,291.60
2008,11,03,14,06,285.70
2008,11,03,14,07,272.50
2008,11,03,14,08,264.20
2008,11,03,14,09,255.10
2008,11,03,14,10,248.00
2008,11,03,14,11,242.20
2008,11,03,14,12,239.80
2008,11,03,14,13,229.50
2008,11,03,14,14,212.50
2008,11,03,14,15,217.00
2008,11,03,14,16,203.60
2008,11,03,14,17,215.20
2008,11,03,14,18,224.70
2008,11,03,14,19,221.00
2008,11,03,14,20,221.00
2008,11,03,14,21,218.70
2008,11,03,14,22,218.00
2008,11,03,14,23,211.40
2008,11,03,14,24,207.20
2008,11,03,14,25,199.00
2008,11,03,14,26,200.30
2008,11,03,14,27,206.70
2008,11,03,14,28,214.10
2008,11,03,14,29,223.30
2008,11,03,14,30,226.60
2008,11,03,14,31,231.30
2008,11,03,14,32,229.00
2008,11,03,14,33,229.00
2008,11,03,14,34,226.70
2008,11,03,14,35,221.70
2008,11,03,14,36,215.30
2008,11,03,14,37,203.00
2008,11,03,14,38,198.70
2008,11,03,14,39,193.90
2008,11,03,14,40,186.60
2008,11,03,14,41,179.90
2008,11,03,14,42,175.40
2008,11,03,14,43,166.10
2008,11,03,14,44,168.10
2008,11,03,14,45,162.70
2008,11,03,14,46,146.90
2008,11,03,14,47,120.80
2008,11,03,14,48,116.00
2008,11,03,14,49,116.00
2008,11,03,14,50,120.80
2008,11,03,14,51,117.80
2008,11,03,14,52,115.70
2008,11,03,14,53,114.00
2008,11,03,14,54,113.80
2008,11,03,14,55,113.00
2008,11,03,14,56,113.00
2008,11,03,14,57,113.00
2008,11,03,14,58,113.40
2008,11,03,14,59,124.90
2008,11,03,15,00,146.00
2008,11,03,15,01,158.20
2008,11,03,15,02,161.90
2008,11,03,15,03,161.10
2008,11,03,15,04,151.30
2008,11,03,15,05,154.20
2008,11,03,15,06,153.70
2008,11,03,15,07,160.50
2008,11,03,15,08,166.60
2008,11,03,15,09,155.70
2008,11,03,15,10,155.90
2008,11,03,15,11,145.20
2008,11,03,15,12,150.60
2008,11,03,15,13,149.00
2008,11,03,15,14,148.90
2008,11,03,15,15,148.00
2008,11,03,15,16,147.60
2008,11,03,15,17,146.80
2008,11,03,15,18,149.70
2008,11,03,15,19,149.90
2008,11,03,15,20,142.60
2008,11,03,15,21,131.30
2008,11,03,15,22,130.70
2008,11,03,15,23,134.00
2008,11,03,15,24,135.70
2008,11,03,15,25,135.80
2008,11,03,15,26,134.30
2008,11,03,15,27,129.70
2008,11,03,15,28,125.70
2008,11,03,15,29,123.40
2008,11,03,15,30,118.80
2008,11,03,15,31,111.80
2008,11,03,15,32,107.60
2008,11,03,15,33,105.20
2008,11,03,15,34,105.00
2008,11,03,15,35,101.90
2008,11,03,15,36,99.50
2008,11,03,15,37,91.20
2008,11,03,15,38,93.00
2008,11,03,15,39,92.60
2008,11,03,15,40,90.20
2008,11,03,15,41,85.00
2008,11,03,15,42,79.70
2008,11,03,15,43,78.30
2008,11,03,15,44,72.20
2008,11,03,15,45,70.00
2008,11,03,15,46,69.50
2008,11,03,15,47,69.00
2008,11,03,15,48,67.80
2008,11,03,15,49,67.00
2008,11,03,15,50,65.60
2008,11,03,15,51,63.40
2008,11,03,15,52,62.20
2008,11,03,15,53,60.50
2008,11,03,15,54,58.20
2008,11,03,15,55,56.10
2008,11,03,15,56,54.10
2008,11,03,15,57,53.00
2008,11,03,15,58,52.90
2008,11,03,15,59,50.90
2008,11,03,16,00,49.00
2008,11,03,16,01,48.70
2008,11,03,16,02,47.00
2008,11,03,16,03,47.00
2008,11,03,16,04,46.80
2008,11,03,16,05,46.00
2008,11,03,16,06,46.00
2008,11,03,16,07,46.00
2008,11,03,16,08,45.10
2008,11,03,16,09,44.00
2008,11,03,16,10,44.00
2008,11,03,16,11,42.80
2008,11,03,16,12,40.70
2008,11,03,16,13,39.30
2008,11,03,16,14,39.00
2008,11,03,16,15,37.60
2008,11,03,16,16,37.00
2008,11,03,16,17,35.20
2008,11,03,16,18,35.00
2008,11,03,16,19,33.30
2008,11,03,16,20,32.00
2008,11,03,16,21,30.00
2008,11,03,16,22,27.90
2008,11,03,16,23,26.00
2008,11,03,16,24,25.80
2008,11,03,16,25,24.60
2008,11,03,16,26,23.00
2008,11,03,16,27,22.30
2008,11,03,16,28,20.30
2008,11,03,16,29,19.00
2008,11,03,16,30,18.60
2008,11,03,16,31,18.00
2008,11,03,16,32,18.00
2008,11,03,16,33,16.90
2008,11,03,16,34,16.00
2008,11,03,16,35,14.70
2008,11,03,16,36,14.00
2008,11,03,16,37,12.40
2008,11,03,16,38,12.00
2008,11,03,16,39,12.00
2008,11,03,16,40,12.00
2008,11,03,16,41,11.10
2008,11,03,16,42,11.00
2008,11,03,16,43,9.00
2008,11,03,16,44,9.00
2008,11,03,16,45,8.90
2008,11,03,16,46,7.00
2008,11,03,16,47,7.00
2008,11,03,16,48,6.60
2008,11,03,16,49,5.00
2008,11,03,16,50,5.00
2008,11,03,16,51,5.00
2008,11,03,16,52,5.00
2008,11,03,16,53,5.00
2008,11,03,16,54,5.00
2008,11,03,16,55,5.00
2008,11,03,16,56,5.00
2008,11,03,16,57,5.00
2008,11,03,16,58,1.70
2008,11,03,16,59,0.00
2008,11,03,17,00,0.00
2008,11,03,17,01,0.00
2008,11,03,17,02,0.00
2008,11,03,17,03,0.00
2008,11,03,17,04,0.00
2008,11,03,17,05,0.00
2008,11,03,17,06,0.00
2008,11,03,17,07,0.00
2008,11,03,17,08,0.00
2008,11,03,17,09,0.00
2008,11,03,17,10,0.00
2008,11,03,17,11,0.00
2008,11,03,17,12,0.00
2008,11,03,17,13,0.00
2008,11,03,17,14,0.00
2008,11,03,17,15,0.00
2008,11,03,17,16,0.00
2008,11,03,17,17,0.00
2008,11,03,17,18,0.00
2008,11,03,17,19,0.00
2008,11,03,17,20,0.00
2008,11,03,17,21,0.00
2008,11,03,17,22,0.00